Lid_Strength_Index
-0 0 0 1 1 2 3 3 3 3 3 3 4 4 4 4 4 5 7 6 10 13 13 13 13 14 14 14 15 15 15 15 15 16 15 15 15 16 17 18 18 18 18 19 17 18 20 14 16 16 13 14 14 13
-0 -0 0 0 1 1 2 3 3 3 4 3 3 3 3 4 4 4 7 5 6 12 13 13 12 11 11 11 13 14 14 15 14 14 14 14 15 16 16 19 15 17 15 17 15 16 14 14 14 14 14 13 13 13
-0 -0 -1 0 1 1 1 2 3 3 3 4 4 4 3 3 3 4 6 5 8 11 12 12 13 11 9 10 8 14 13 12 13 12 13 13 14 15 17 17 17 16 15 16 15 14 13 14 14 15 14 13 13 13
-0 -0 -0 -0 -0 0 1 2 2 3 3 3 4 4 4 4 4 4 6 5 8 11 16 14 12 13 12 9 9 9 12 12 12 12 12 13 14 14 16 15 15 15 14 16 15 13 13 13 12 11 13 13 13 13
-0 -0 -0 -0 -0 -0 0 1 2 2 2 3 3 3 4 4 4 4 5 5 5 10 15 14 15 13 13 11 10 9 10 11 12 13 13 14 14 13 15 15 16 14 15 15 15 11 11 11 11 11 11 11 11 12
-0 -0 -0 -0 -0 -0 -1 0 1 1 2 2 2 3 3 3 3 6 10 8 5 7 12 18 12 16 15 13 12 12 11 11 11 12 14 14 13 13 16 17 14 13 12 11 12 12 11 11 12 11 11 11 11 13
-0 -0 -0 -0 -1 -1 -1 -1 -0 1 1 1 2 2 2 2 4 8 10 7 3 6 11 17 17 16 14 13 11 10 10 10 11 11 12 15 14 12 16 17 14 14 13 12 13 12 13 12 12 10 12 11 14 15
-0 -0 -0 -0 -0 -0 -1 -1 -1 -1 0 1 1 1 1 1 3 7 5 3 2 7 9 18 18 18 12 15 14 10 10 10 10 11 11 13 13 13 15 14 12 12 12 13 12 13 11 12 14 14 15 15 16 16
-0 -0 -0 -0 -0 -0 -0 -0 -1 -1 -1 -0 -0 -0 2 5 7 6 2 2 3 7 12 15 18 20 13 15 14 11 13 16 12 12 13 12 12 14 14 12 12 12 13 13 12 14 16 15 14 15 15 17 16 14
-0 -0 -0 -0 -0 -0 -0 -0 -1 -1 -1 -0 2 5 10 5 2 2 5 7 7 7 8 14 13 16 14 15 13 14 15 17 20 15 12 13 13 10 13 12 11 14 15 16 17 18 18 17 14 13 13 13 14 17
-0 -0 -0 -0 -0 -0 -0 -0 -1 -0 -0 4 7 8 4 1 4 6 10 9 9 10 8 12 11 14 12 14 14 12 13 15 19 18 15 18 20 13 13 15 22 25 24 26 24 23 24 23 23 22 22 23 23 24
-0 -0 -0 -0 -0 -0 -0 -1 -1 2 3 3 4 3 3 6 7 9 11 11 11 13 13 14 12 9 11 11 13 11 14 13 15 15 18 21 15 28 29 29 28 29 29 29 30 30 29 27 29 28 28 27 26 26
-0 -0 -0 -0 -0 -0 -1 -1 -0 -0 2 5 7 9 9 8 12 13 16 12 13 20 20 18 12 10 11 10 9 10 12 13 12 15 17 16 24 29 30 30 30 30 30 30 29 29 29 30 29 29 29 29 29 28
-0 -0 -0 -0 -0 -0 -1 -1 -1 1 3 9 11 15 12 12 16 20 20 20 21 21 22 20 19 13 10 11 10 13 12 13 15 16 18 23 31 32 30 30 32 31 31 31 31 31 31 31 29 30 30 30 29 27
-0 -0 -0 -0 -0 -0 -1 -1 1 7 8 8 10 16 17 22 23 25 25 24 24 23 20 19 18 15 12 13 12 13 16 16 17 19 27 30 33 33 31 31 32 31 31 32 32 31 29 29 29 29 31 30 30 29
1 0 2 -0 -0 -0 1 5 8 10 14 14 16 22 25 22 27 27 26 26 26 25 24 23 23 18 14 12 14 15 16 16 20 30 30 30 33 32 33 33 33 33 33 33 32 32 30 32 31 29 29 30 29 29
2 4 -0 1 2 4 5 10 12 16 17 19 25 24 24 26 27 29 28 28 25 27 24 23 23 21 20 17 18 28 26 32 32 31 31 32 33 33 34 34 33 34 33 33 33 33 31 30 30 32 31 28 29 28
4 2 2 3 7 9 13 13 16 18 22 22 23 26 25 26 27 28 28 26 27 26 25 26 26 27 24 23 27 33 33 32 32 33 33 33 34 34 34 34 34 34 34 34 34 33 31 31 31 29 30 28 27 27
5 5 5 5 8 14 17 18 17 25 25 24 24 24 25 26 26 26 26 25 24 23 24 24 27 26 33 34 35 34 35 34 34 33 32 33 33 33 34 33 34 34 34 35 34 31 31 31 29 28 27 28 27 26
6 7 8 8 9 16 20 22 19 23 26 25 24 25 25 26 26 25 26 25 25 25 27 29 33 33 33 34 33 34 34 32 32 30 28 27 28 29 30 30 30 31 30 30 30 29 31 30 30 32 30 28 28 28
10 11 10 14 19 22 25 26 27 26 25 27 26 26 28 27 28 28 28 26 29 32 32 33 33 35 34 33 32 30 30 30 31 32 34 32 31 31 33 33 33 33 33 32 32 31 30 30 29 28 29 29 28 27
15 12 17 16 22 25 27 27 27 27 28 29 29 30 32 34 34 34 31 34 36 36 33 33 32 32 33 33 32 32 34 35 35 34 30 31 34 34 34 34 35 36 37 36 35 33 32 31 29 28 28 28 27 26
16 17 22 23 25 27 31 27 30 31 33 34 33 34 36 36 35 31 37 38 38 37 37 37 36 32 32 31 31 31 32 33 33 32 32 32 31 29 28 29 31 33 33 33 33 32 31 29 28 29 28 28 28 28
23 32 31 30 28 34 31 34 31 33 34 35 36 39 38 37 35 35 39 40 38 37 39 40 39 37 33 32 32 32 32 32 32 31 31 32 32 31 31 29 30 33 34 32 32 32 31 30 29 29 30 30 30 30
22 35 34 33 32 31 35 35 35 35 39 40 39 40 39 39 38 39 39 40 39 40 40 40 40 39 39 35 33 33 33 34 34 35 33 33 33 32 31 31 31 32 31 32 32 32 31 30 30 30 30 31 32 31
35 41 38 38 36 35 36 38 39 39 39 40 41 41 41 39 40 40 40 41 41 41 41 41 40 41 37 34 34 34 35 33 33 33 33 33 34 34 34 33 33 31 31 31 32 32 31 31 31 31 32 31 32 32
37 43 40 38 37 36 37 38 39 40 42 42 42 41 40 41 41 40 39 38 40 40 38 38 38 38 35 34 32 32 32 32 33 32 32 31 32 32 32 34 35 33 31 31 31 32 30 31 32 32 33 32 32 32
42 42 41 41 39 37 40 39 41 43 43 42 42 43 42 41 40 41 38 37 37 36 35 35 36 34 33 33 32 33 33 32 32 32 31 31 30 30 31 31 31 27 30 30 31 29 28 30 31 31 32 32 32 31
40 41 39 43 42 41 40 40 40 39 38 41 41 40 42 39 40 41 39 36 34 32 33 34 33 32 32 31 32 33 34 34 35 32 32 32 32 32 31 31 31 31 31 32 29 27 25 27 27 29 30 31 30 30
40 40 38 40 41 42 40 39 39 37 36 37 36 34 35 36 37 36 37 37 35 34 33 33 32 32 33 33 32 33 34 34 34 35 35 35 35 34 32 32 32 32 33 33 32 32 29 30 29 30 31 31 31 31
34 35 34 34 36 35 36 35 35 35 35 35 36 37 37 38 37 35 35 35 33 32 32 33 32 32 33 33 34 34 33 33 33 33 33 34 33 33 33 32 33 34 34 34 34 34 33 33 33 33 34 34 34 33
33 32 32 34 33 32 31 32 32 32 32 33 34 35 35 35 37 36 34 35 34 34 33 33 33 33 32 32 32 32 32 33 33 34 34 32 32 30 30 33 34 35 34 34 34 34 35 35 35 35 35 35 35 35
29 29 29 30 31 31 31 31 31 32 31 32 33 33 34 33 35 33 31 33 34 34 33 33 32 32 31 32 32 32 32 33 33 30 30 28 28 28 32 35 36 37 37 38 38 37 38 39 38 38 38 38 38 38